ECMWFNIL_500_spd_057.txt.gz
Wind_Speed
38 39 39 39 39 39 40 40 41 42 43 43 44 44 45 45 45 45 46 46 47 48 49 50 51 52 53 53 55 56 57 58 60 61 62 64 65 66 67 67 67 68
38 38 38 38 39 39 40 41 42 42 43 43 44 44 45 45 45 45 46 47 48 49 50 51 52 53 54 55 56 57 59 60 62 63 64 65 66 67 67 67 69 70
38 38 38 38 39 40 41 41 42 42 42 43 43 44 44 45 45 46 47 48 49 50 51 52 53 54 55 56 57 59 61 62 63 64 65 66 67 67 67 69 70 71
38 39 39 40 41 42 42 42 42 42 42 42 43 44 44 45 46 47 48 49 50 51 52 53 55 56 57 58 59 61 62 64 65 66 66 67 67 68 69 70 70 69
38 40 41 42 42 43 43 42 42 42 42 42 43 43 44 45 47 48 49 50 51 53 54 55 56 57 59 60 61 63 64 65 66 66 67 67 68 69 69 68 68 69
39 40 40 41 41 41 42 42 42 42 41 42 43 44 45 46 48 49 50 52 53 55 56 57 58 59 60 62 63 64 65 66 67 67 68 69 69 68 66 66 69 72
40 40 40 40 40 41 41 41 41 41 41 42 43 44 45 47 48 50 51 53 55 56 57 58 59 60 61 63 64 65 66 67 68 69 69 69 67 65 64 67 71 73
40 40 40 40 40 41 41 42 41 41 41 42 43 45 46 47 49 51 53 54 56 58 59 60 60 61 62 64 65 66 67 68 69 69 68 66 64 63 66 70 72 71
41 41 41 41 41 41 42 42 42 41 42 43 44 46 47 49 50 52 54 56 57 59 60 61 61 62 63 64 66 67 69 69 69 68 66 65 64 65 70 73 72 72
44 43 43 42 42 42 42 42 42 42 43 44 46 47 48 50 52 54 56 57 59 60 61 62 62 63 64 66 67 69 70 69 68 66 66 66 66 69 72 73 73 75
46 45 44 43 42 43 43 43 43 44 45 46 47 49 50 52 54 55 57 58 60 61 62 62 63 64 66 67 68 69 70 68 65 65 67 68 69 71 72 73 76 78
46 45 44 43 43 44 44 45 45 46 47 48 49 51 52 54 55 57 58 60 61 62 62 64 65 66 67 68 69 69 68 66 65 67 69 70 71 71 72 75 78 80
46 45 45 44 44 45 46 47 47 48 49 50 51 52 53 55 56 58 59 60 62 62 64 66 66 67 68 68 69 69 67 66 67 69 70 70 71 73 74 78 80 81
45 45 45 45 45 46 47 48 49 49 50 51 52 53 53 54 56 58 59 61 62 63 65 66 67 68 68 69 70 69 68 68 69 70 71 72 74 76 78 79 80 81
44 45 45 45 46 47 48 49 50 51 52 52 53 53 53 54 56 58 59 60 62 63 65 66 67 68 68 69 70 70 70 70 71 72 73 75 76 77 79 80 81 83
44 44 45 46 48 49 50 51 52 52 53 53 53 53 54 55 56 57 58 60 61 62 63 64 66 67 68 70 71 71 72 72 72 73 74 74 75 78 81 83 84 84
44 45 47 48 49 51 52 52 53 53 53 53 53 53 54 55 56 57 58 59 60 61 62 63 65 67 68 68 70 71 72 71 71 72 74 76 78 81 83 84 84 83
46 47 49 50 51 52 52 53 52 52 52 52 52 52 54 56 57 58 60 62 62 63 64 65 66 67 68 69 71 72 72 71 71 74 76 78 81 82 83 83 82 82
48 49 50 51 51 51 51 52 51 50 50 50 50 52 55 58 60 62 63 65 66 68 69 68 68 69 70 71 72 72 71 71 73 75 77 79 81 82 82 82 82 82
49 50 49 49 49 49 50 50 50 49 50 50 50 51 53 56 59 61 63 65 68 70 70 69 68 68 69 70 71 71 70 71 73 76 77 79 80 81 82 83 83 83
47 47 47 47 48 48 48 49 49 49 50 51 51 52 54 55 57 59 62 65 67 68 68 67 67 68 69 71 71 71 72 74 75 77 78 80 81 83 84 84 83 81
45 45 46 46 47 47 47 48 49 50 51 52 53 54 56 57 57 58 60 62 64 66 67 66 65 67 70 72 73 74 75 76 77 78 80 82 84 85 84 81 79 79
46 46 45 45 45 46 46 48 49 51 53 55 56 57 59 59 58 59 61 62 65 67 68 66 66 69 72 73 75 76 77 77 79 80 82 84 84 81 79 78 78 78
45 44 43 43 44 46 48 50 53 55 57 58 59 60 60 58 59 62 63 64 66 68 68 69 71 73 74 75 76 77 79 80 82 83 83 82 79 77 77 77 77 77
42 42 43 45 48 50 52 54 56 58 59 61 62 63 61 59 60 62 62 63 65 66 67 70 73 75 76 77 78 80 82 83 83 82 80 78 76 75 76 76 76 77
42 45 48 50 52 54 55 57 58 59 61 62 64 64 62 61 61 61 62 64 65 66 69 72 75 76 77 78 80 81 82 81 80 78 76 74 74 75 76 77 78 80

ECMWFNIL_500_spd_060.txt.gz
Wind_Speed
34 34 36 36 36 36 37 37 38 38 39 39 40 40 42 43 43 44 43 43 44 44 44 45 46 47 48 48 49 50 51 53 54 54 55 56 57 58 59 61 62 63
35 35 36 36 36 36 36 36 36 37 38 39 40 41 42 43 43 44 43 43 43 43 44 45 46 47 48 49 50 51 52 53 54 55 56 57 58 59 60 62 63 64
36 36 36 36 36 36 36 36 36 37 39 40 42 43 43 43 43 43 43 42 42 43 43 45 46 47 48 49 51 52 53 54 55 56 57 58 59 60 62 63 64 66
37 37 37 37 37 37 38 38 38 39 40 41 42 43 43 43 43 43 43 42 42 43 44 45 46 47 49 50 51 53 54 55 56 57 58 59 61 62 63 64 65 66
38 38 38 38 38 38 39 39 39 40 41 41 42 43 43 43 44 44 43 43 43 44 44 45 46 48 49 50 52 53 55 56 57 58 60 61 62 63 64 65 66 66
39 39 39 39 38 38 38 38 39 40 41 42 42 43 43 43 44 44 44 44 44 44 45 46 47 48 50 51 53 54 56 57 59 60 62 63 63 64 64 65 66 67
39 39 40 39 39 38 38 38 39 40 41 42 43 43 43 43 44 44 44 44 44 44 45 46 47 49 51 52 54 55 57 59 60 62 63 63 64 64 64 65 66 67
39 40 40 40 39 38 39 39 41 42 43 43 43 43 43 43 43 44 44 44 44 44 45 46 48 50 51 53 55 57 58 60 61 62 63 63 63 64 64 66 66 67
39 40 40 40 40 40 41 42 44 44 45 44 43 43 43 43 43 43 44 44 44 45 46 48 49 50 52 54 56 58 59 60 61 62 63 63 64 65 67 67 67 68
40 40 41 41 42 42 44 45 46 46 46 45 44 44 43 43 44 44 44 44 45 46 48 49 50 51 53 55 57 59 60 61 62 63 63 64 66 68 69 68 68 68
42 42 43 43 44 45 45 46 47 47 47 46 45 44 44 44 45 45 45 46 46 48 49 50 51 52 54 56 58 59 61 62 63 64 65 67 69 69 69 69 69 68
44 44 44 44 45 46 46 47 47 47 47 47 46 46 46 46 46 46 47 47 48 49 50 51 52 53 55 57 59 60 61 63 64 65 67 69 70 70 70 69 68 68
44 44 44 45 45 46 47 47 48 48 48 47 47 47 47 47 47 48 48 49 50 51 51 52 53 55 56 58 59 60 61 62 65 67 68 69 70 71 70 69 68 69
45 45 45 46 47 47 48 48 48 48 48 48 48 48 48 49 49 50 51 52 52 52 53 54 55 56 57 58 60 61 62 64 66 67 68 70 71 72 72 72 72 72
47 46 46 47 48 48 48 48 49 49 49 49 49 49 50 50 51 52 53 54 54 54 54 54 55 56 57 59 61 63 64 65 67 68 71 72 74 75 77 78 77 77
48 48 48 48 48 48 49 49 49 49 49 50 50 51 51 52 53 54 55 56 56 56 56 55 55 56 59 61 62 64 65 67 69 71 72 73 75 78 80 80 79 77
48 48 48 48 49 49 49 49 50 50 51 51 51 52 53 54 54 55 55 55 56 55 55 55 55 57 60 62 63 65 67 68 69 71 71 72 74 76 77 78 77 73
47 47 48 49 49 50 50 50 51 51 51 51 52 52 53 53 53 53 53 54 53 53 53 54 56 58 60 62 64 66 67 68 69 69 70 70 71 72 75 77 76 73
46 47 48 49 50 50 50 50 50 51 51 51 51 51 51 51 51 51 52 51 51 52 53 55 57 59 61 63 65 66 67 68 67 67 67 68 70 73 76 77 77 77
46 47 48 49 49 50 50 50 50 50 49 49 48 48 49 50 50 50 49 50 51 52 54 56 58 60 62 64 66 68 68 68 67 68 69 70 72 74 76 77 78 80
45 46 47 47 47 47 47 47 47 47 46 46 47 48 48 47 47 47 48 49 51 53 55 56 59 61 63 64 66 68 69 69 70 71 72 72 72 72 74 76 79 83
44 45 45 45 45 45 45 45 45 45 45 45 46 45 44 44 45 47 48 50 52 54 56 58 60 62 63 64 66 68 69 70 72 72 72 70 69 70 73 77 81 85
44 45 45 45 45 44 44 44 44 44 43 43 43 43 44 45 47 48 50 52 53 55 57 59 62 63 63 64 66 68 70 70 71 70 69 67 68 72 76 80 83 86
46 46 46 45 45 44 44 43 42 42 42 42 43 45 47 48 50 51 52 53 55 57 59 61 63 63 64 65 66 68 70 70 70 70 69 70 73 77 80 81 83 83
48 48 47 46 45 44 44 43 43 43 43 45 47 49 50 51 52 54 54 55 57 58 60 62 63 63 64 65 66 67 69 69 69 70 72 75 77 79 80 80 80 80
50 49 48 47 46 45 45 45 45 46 47 49 50 52 53 54 55 56 57 57 58 60 61 63 64 63 63 65 67 68 69 70 72 74 76 77 77 77 76 76 77 77

ECMWFNIL_500_spd_063.txt.gz
Wind_Speed
36 36 35 34 36 37 37 37 38 38 38 38 38 38 39 39 39 39 38 39 41 41 42 43 45 45 44 44 44 45 45 45 46 46 47 48 49 50 51 52 53 54
38 38 37 37 38 39 38 38 39 39 39 39 39 39 40 40 40 39 40 41 42 43 42 43 44 45 44 44 44 45 45 45 45 46 47 48 49 50 52 53 54 55
40 40 39 39 40 41 40 40 40 40 40 40 40 41 41 41 41 41 41 42 42 43 43 43 44 45 45 45 45 46 46 45 45 46 47 48 49 51 52 53 54 55
41 41 41 41 42 42 41 41 41 42 42 42 42 42 42 42 42 42 42 42 43 44 44 45 45 46 46 46 46 46 46 46 46 47 48 49 50 52 53 54 55 57
43 42 42 42 42 42 42 42 43 43 43 43 44 44 44 43 43 42 42 42 43 45 45 46 46 46 47 46 46 46 46 46 46 47 49 50 51 52 54 55 56 58
43 43 42 42 42 42 42 43 44 44 44 45 45 45 45 44 43 43 43 44 45 45 45 46 46 46 46 46 46 46 46 46 47 48 49 51 52 53 54 56 57 59
43 44 44 43 43 42 42 43 44 44 45 45 46 45 45 44 44 44 45 45 45 45 45 46 46 46 46 46 46 46 46 47 48 49 50 51 52 54 55 57 58 60
44 44 44 45 44 43 43 44 44 44 44 45 45 45 45 45 45 46 47 47 46 45 46 46 46 46 46 46 46 47 47 48 49 50 51 52 53 55 56 58 60 62
45 44 45 45 46 45 45 45 45 44 45 45 45 45 46 46 47 48 49 48 47 46 46 46 46 47 48 48 48 48 48 49 49 50 52 53 55 56 58 59 61 64
45 45 46 47 47 47 47 46 46 46 46 46 47 47 47 47 48 49 50 49 49 48 48 48 48 49 49 50 50 49 49 50 50 52 53 55 56 57 59 61 63 65
45 46 46 47 48 49 48 48 48 49 49 49 49 49 49 49 49 50 50 50 50 50 50 50 50 50 51 51 51 50 50 51 52 54 55 56 57 58 60 62 64 65
47 48 48 49 50 50 50 51 51 51 51 51 51 50 50 51 51 51 51 52 52 51 51 51 52 52 53 52 52 52 52 53 54 55 55 56 57 59 61 63 65 67
50 51 51 51 52 52 53 53 53 53 52 51 51 51 52 52 52 52 52 53 53 52 52 53 53 53 54 54 53 53 54 54 55 55 56 57 58 60 63 65 67 69
52 53 53 53 53 53 54 54 53 53 52 52 52 52 53 53 53 53 53 53 53 53 54 54 54 54 54 54 54 55 55 55 55 56 56 57 59 61 63 66 68 70
52 53 53 53 53 53 53 53 53 52 52 52 52 53 53 53 53 53 53 53 54 54 55 55 55 55 55 55 55 56 55 55 55 56 56 59 61 63 64 66 67 69
52 52 52 52 52 52 52 52 52 53 52 52 52 52 52 52 53 53 53 54 55 55 56 55 55 55 55 56 56 56 55 55 55 55 57 60 63 64 65 66 67 69
53 52 52 52 52 52 52 52 52 53 52 52 51 52 52 52 52 53 54 55 56 56 56 56 55 56 56 56 56 55 55 55 55 56 58 61 63 64 65 67 69 70
51 51 51 51 52 52 53 52 52 52 52 52 52 52 52 53 53 54 55 57 57 57 57 56 56 56 56 55 55 54 54 55 56 57 60 62 63 65 66 69 71 72
49 49 50 50 51 51 52 51 51 52 52 52 52 53 53 54 55 56 57 58 58 58 57 56 55 55 55 55 54 54 53 54 56 58 61 62 64 65 67 70 71 71
45 46 47 48 48 49 49 50 50 51 52 52 53 54 54 55 56 58 58 58 58 57 56 55 54 54 54 54 54 53 53 55 57 59 61 63 65 67 69 70 71 71
44 45 45 46 47 47 47 48 49 50 51 52 53 54 55 56 56 57 57 57 57 56 55 54 54 54 53 51 52 53 54 56 58 60 61 63 65 67 68 69 70 70
47 46 47 47 47 47 47 48 48 49 50 51 52 53 53 54 55 55 55 55 55 55 55 54 53 52 51 51 52 54 55 56 57 59 61 63 65 66 67 68 69 70
50 50 50 50 50 50 49 49 49 49 49 50 50 51 52 53 53 54 54 55 55 55 54 52 51 51 52 52 53 54 56 56 58 59 61 63 65 66 66 66 67 69
54 54 54 53 53 52 52 51 51 50 50 50 51 51 52 52 53 54 54 55 54 54 53 52 51 52 53 54 54 55 57 58 59 60 62 64 64 64 64 65 67 70
57 57 57 56 55 55 54 53 53 52 52 52 52 52 52 52 53 54 54 54 54 53 53 53 54 54 55 55 56 57 58 58 59 61 62 63 63 63 64 66 69 71
58 59 59 58 58 57 56 55 55 54 53 53 52 52 52 53 53 53 54 54 55 55 55 55 56 56 57 57 57 58 58 58 59 60 61 62 62 63 64 65 67 69

ECMWFNIL_500_spd_069.txt.gz
Wind_Speed
41 41 41 41 40 40 41 42 42 43 43 45 47 48 48 48 49 49 50 51 51 51 52 52 52 51 51 50 49 48 48 48 48 48 49 49 50 51 52 51 50 50
43 43 44 43 43 43 44 45 46 46 46 45 46 49 50 51 51 50 50 51 52 52 52 52 53 53 52 51 51 50 50 50 50 50 50 50 51 52 52 52 52 52
46 46 46 45 45 46 47 48 49 50 49 48 48 49 51 52 53 52 51 52 52 52 52 52 52 52 52 52 52 52 52 52 52 52 52 52 52 52 53 53 53 53
49 48 48 47 47 48 49 51 53 53 52 50 50 50 51 52 53 53 52 52 52 52 52 52 52 52 52 52 52 52 52 52 53 54 54 53 53 53 54 54 54 54
51 51 50 49 49 49 51 53 55 56 54 52 52 52 53 53 54 54 53 52 52 52 52 52 52 52 52 53 53 53 53 54 54 55 56 55 54 54 55 55 55 55
54 54 52 51 50 51 52 55 57 57 56 54 53 53 55 55 54 54 54 52 51 51 51 51 51 52 52 52 53 53 54 55 56 56 57 57 56 56 56 56 56 56
57 56 54 52 51 51 53 56 57 57 57 57 56 55 55 56 54 53 53 53 51 50 50 50 50 51 52 52 53 54 55 56 56 57 57 58 58 58 58 58 58 58
60 59 56 53 52 52 54 57 58 58 59 59 58 56 55 56 55 53 53 52 51 50 50 50 50 51 52 53 54 55 56 57 57 57 58 58 59 59 59 59 59 58
62 61 59 55 53 53 54 57 59 60 60 59 59 57 56 55 55 53 52 52 52 51 51 51 52 53 53 54 55 56 57 58 58 58 58 58 59 59 59 59 58 58
62 61 60 58 56 55 55 58 60 61 60 58 58 57 55 54 54 54 53 52 52 52 52 53 54 54 55 56 56 57 58 58 59 58 57 57 58 59 58 58 58 58
62 60 60 59 58 58 58 59 59 59 58 57 57 56 55 53 53 53 53 52 52 53 53 54 55 55 55 55 56 56 57 57 57 57 56 56 56 57 58 58 58 58
62 60 60 60 60 60 59 58 56 56 56 55 55 54 53 52 52 52 52 52 52 53 54 55 55 55 55 55 55 55 55 56 56 56 56 55 55 56 57 57 57 57
64 63 62 63 61 58 56 54 54 53 53 53 52 51 50 50 51 52 52 52 52 53 53 53 53 53 53 53 54 54 54 55 55 55 55 56 56 56 57 57 57 57
68 66 64 62 59 54 52 52 52 52 51 51 50 49 49 49 49 50 51 51 51 51 51 51 51 51 51 51 52 52 53 54 55 55 56 56 56 56 57 57 58 58
68 65 62 60 56 53 52 52 52 52 50 49 49 48 47 47 48 49 50 50 50 49 49 49 49 49 49 49 49 50 51 52 53 54 55 55 56 56 56 57 58 59
64 63 61 59 57 55 54 55 54 53 50 48 47 47 46 46 46 48 48 49 48 48 48 48 48 48 48 48 48 49 50 51 52 53 54 54 55 56 56 57 58 59
62 62 62 60 58 57 57 56 55 52 48 46 46 46 46 46 46 47 48 48 47 47 47 47 47 48 48 49 50 50 52 53 53 54 55 56 56 57 58 59 60 60
63 62 61 59 57 56 56 55 53 49 46 45 45 45 45 45 45 46 45 45 45 45 45 45 46 47 48 49 50 51 52 53 54 55 56 57 58 59 60 62 63 64
61 59 57 56 54 53 52 51 49 47 46 45 45 44 43 43 43 43 42 42 43 43 44 45 46 48 49 50 51 52 53 54 55 56 57 58 59 60 62 63 64 66
57 56 55 54 52 51 50 49 49 48 48 47 47 46 44 43 43 43 43 43 44 44 46 47 48 50 51 52 53 54 55 56 56 57 58 59 60 61 63 64 65 66
55 54 54 53 53 52 52 52 52 51 51 51 50 49 47 46 45 45 45 45 46 47 48 50 51 53 54 55 56 56 57 58 58 58 59 60 61 62 63 64 65 67
57 55 54 55 55 55 55 56 56 55 55 55 54 52 51 50 49 49 48 48 49 50 51 53 54 55 56 57 58 58 59 59 59 59 60 60 61 62 64 65 66 67
59 58 58 58 58 59 59 59 59 58 58 58 58 57 56 55 54 54 53 53 54 54 55 56 57 57 58 59 60 60 61 61 60 60 61 61 62 62 64 65 66 67
61 62 62 63 62 62 62 62 62 62 62 62 62 62 61 60 60 59 59 59 59 59 59 59 59 59 60 60 61 61 62 62 61 61 61 62 62 63 64 65 66 68
66 66 67 67 67 66 66 66 66 66 66 66 66 65 65 65 65 65 65 64 64 63 63 62 62 62 62 62 63 63 62 62 62 62 62 62 63 64 65 66 68 69
74 74 73 72 72 71 71 71 71 71 71 70 70 69 70 70 69 70 70 69 68 68 67 66 65 64 64 64 65 64 63 62 61 61 61 62 63 65 66 68 70 71

ECMWFNIL_500_spd_072.txt.gz
Wind_Speed
42 43 44 44 45 45 46 46 46 46 47 47 48 48 49 49 50 51 52 52 52 51 50 50 51 53 54 55 55 54 54 54 54 53 53 54 54 54 54 54 53 54
46 46 46 47 47 48 48 49 48 48 49 49 49 50 51 51 52 53 54 55 54 53 52 52 53 54 56 56 56 55 53 52 53 53 53 53 53 53 53 54 54 55
49 49 49 50 50 50 51 51 51 50 50 50 51 53 53 54 54 55 56 56 56 56 55 55 56 56 57 57 56 55 53 51 51 52 53 53 53 53 53 53 54 55
51 52 52 53 53 53 53 53 52 52 51 52 53 55 55 56 56 57 58 58 58 58 58 58 58 58 58 57 56 55 53 50 50 50 51 52 52 53 53 54 55 55
55 56 56 56 56 56 56 55 54 54 53 54 55 56 57 57 58 59 60 61 60 60 60 60 59 58 57 57 57 56 54 51 50 50 50 51 51 52 53 55 55 56
58 59 59 59 59 58 58 57 57 56 55 55 55 56 57 57 59 61 63 63 63 63 62 60 57 56 56 56 56 56 54 53 52 52 52 52 52 54 55 56 56 57
61 61 61 61 61 60 60 59 59 58 56 55 55 55 56 58 60 63 65 66 67 66 64 59 55 53 54 55 55 55 54 54 53 53 53 54 55 56 56 56 56 57
63 63 62 62 62 62 61 60 60 58 57 55 54 55 57 60 62 64 66 68 68 66 63 58 53 52 53 54 54 54 54 54 54 54 54 55 56 56 57 57 56 56
64 63 63 63 63 63 62 61 59 58 57 55 55 56 58 61 64 66 67 67 66 64 61 57 52 51 52 53 54 54 54 55 56 56 56 57 57 57 56 56 55 54
64 64 63 62 62 62 62 61 60 59 58 56 57 58 60 63 65 65 64 63 62 61 59 55 52 51 52 53 54 54 54 55 56 56 57 57 56 56 55 54 53 52
62 62 61 60 60 60 61 62 62 61 60 59 60 61 61 61 61 60 59 59 59 59 57 54 52 52 52 53 53 54 54 54 55 56 56 56 55 54 53 53 52 51
61 61 61 61 61 62 63 64 64 63 63 63 62 59 57 56 56 57 57 57 57 57 55 54 53 53 53 53 53 53 53 53 53 54 54 53 52 52 52 51 51 51
62 63 63 63 64 64 65 65 65 64 63 61 58 55 53 54 55 56 55 55 54 54 53 52 52 53 53 53 53 53 52 52 51 51 51 50 50 50 49 49 49 49
63 63 64 64 64 64 64 63 62 61 60 58 56 55 53 53 53 52 51 50 50 50 50 50 51 52 53 53 53 53 52 51 51 50 49 49 49 49 49 49 49 50
60 61 61 61 61 60 60 59 59 59 58 58 57 55 52 50 49 48 47 47 47 47 48 49 51 52 54 54 54 53 53 51 50 49 49 49 49 49 50 50 51 51
57 57 57 57 57 57 58 58 58 59 59 58 56 53 50 48 47 45 45 45 46 47 48 49 51 52 54 54 54 53 52 50 49 49 49 49 50 51 51 52 53 54
56 56 56 57 58 58 59 59 59 59 58 56 54 51 49 48 47 46 45 46 47 48 49 51 52 53 53 53 52 52 51 50 49 49 50 50 51 52 53 54 55 56
56 57 57 58 59 60 60 60 60 58 55 53 52 51 50 49 48 48 48 48 49 50 51 52 53 54 54 53 52 52 52 51 51 51 52 52 53 54 55 56 57 58
57 57 57 58 59 60 60 60 59 57 54 53 52 52 52 51 50 50 50 51 52 52 53 55 56 56 56 56 55 55 54 54 55 55 55 55 56 57 58 59 60 61
58 57 57 58 59 59 60 59 58 56 54 54 53 53 54 54 53 53 54 54 55 55 55 56 58 59 59 58 58 58 58 58 58 58 58 59 60 61 62 62 63 63
58 57 57 58 59 59 60 59 58 57 56 55 55 55 55 56 56 57 58 58 58 59 58 58 59 60 61 61 61 61 61 61 62 62 62 63 64 64 65 65 65 65
60 59 59 60 61 61 61 62 62 61 61 60 60 60 60 61 63 64 65 65 65 64 63 62 61 61 62 63 64 64 64 65 65 66 66 67 67 67 67 67 66 66
64 64 64 64 65 65 66 67 67 67 68 68 68 68 69 70 71 72 72 72 71 70 68 67 65 65 65 65 66 67 68 69 69 70 70 71 70 69 69 68 68 67
71 71 71 71 71 71 71 72 73 74 75 76 76 76 76 77 77 76 75 75 74 73 72 71 69 68 68 68 69 70 70 71 72 72 73 73 72 72 72 72 70 69
79 79 79 79 78 77 77 77 77 78 79 81 81 82 82 81 80 79 78 76 75 75 74 73 72 72 72 72 72 72 72 72 73 74 74 74 74 73 72 70 68 68
83 84 84 84 84 84 83 83 82 83 83 84 85 86 85 85 84 82 80 79 78 76 75 75 74 74 74 74 73 74 74 74 74 74 74 73 71 69 68 68 69 70

ECMWFNIL_500_spd_075.txt.gz
Wind_Speed
44 44 45 45 45 45 45 46 47 48 49 49 50 50 51 52 52 53 53 54 54 54 55 55 56 57 58 58 59 59 59 60 60 60 61 61 60 58 56 54 53 53
48 48 48 47 47 47 48 49 51 51 51 52 52 53 53 54 54 54 55 55 55 56 56 57 58 59 60 60 60 60 61 61 62 62 62 62 60 59 56 54 53 53
51 51 50 50 50 51 52 53 54 54 54 54 54 55 56 56 55 55 55 55 56 57 58 59 60 61 62 62 63 63 63 63 64 64 63 60 58 57 55 54 53 53
53 53 53 54 55 55 56 56 57 57 57 57 57 57 57 57 56 55 56 56 57 58 59 59 60 62 63 64 65 65 65 66 66 64 60 57 56 56 54 54 53 53
55 55 56 57 57 58 58 58 58 59 59 58 57 57 57 57 56 56 56 56 57 58 58 59 60 62 64 65 66 67 67 66 63 59 56 55 55 55 55 54 53 53
57 57 58 58 58 59 59 59 59 59 58 58 58 58 58 57 56 56 56 56 56 57 58 59 60 62 64 66 68 69 67 63 59 55 53 53 54 55 55 55 54 53
57 58 59 59 59 60 59 59 59 59 59 59 59 59 59 57 56 56 56 57 57 58 59 60 61 63 66 68 69 67 63 59 55 53 52 53 54 55 55 54 53 53
58 59 59 60 61 61 61 60 60 60 60 60 60 59 59 58 57 58 58 59 59 60 61 62 63 65 66 67 65 63 60 57 54 52 52 53 54 54 54 54 53 53
59 60 60 61 61 61 61 60 60 60 60 60 60 60 60 60 61 61 61 61 61 62 63 64 64 63 62 62 61 61 59 56 53 51 52 52 53 53 53 53 53 52
60 60 60 59 59 59 59 59 59 59 60 61 61 62 63 64 65 65 65 64 63 63 63 61 59 58 58 59 59 58 55 53 51 51 51 51 52 52 52 52 52 52
61 60 59 59 59 59 59 60 60 61 62 63 64 65 66 66 67 66 65 63 61 60 58 57 56 57 58 58 57 54 51 50 50 49 50 50 51 52 53 53 53 52
63 62 61 61 61 61 61 62 63 64 65 65 66 66 66 65 64 63 61 59 58 57 56 56 56 57 56 55 53 51 49 49 48 48 48 49 51 52 54 55 55 54
63 63 63 63 63 63 64 64 65 65 65 64 64 63 62 61 60 59 58 57 57 56 56 55 55 54 53 52 50 49 48 48 48 48 48 50 51 53 55 56 56 56
61 62 62 63 63 63 63 63 62 62 61 61 61 59 58 58 57 57 57 57 56 56 55 55 54 52 52 51 50 49 48 48 49 49 50 51 53 54 56 57 57 57
59 59 59 60 60 60 60 59 59 58 58 58 57 57 56 56 56 56 56 56 56 55 55 56 55 53 51 51 50 49 50 50 50 51 52 54 55 56 58 58 59 59
56 56 57 57 57 57 57 57 57 57 56 56 56 56 56 56 56 56 56 56 56 56 56 56 55 54 52 52 51 50 51 52 53 54 55 56 57 58 59 61 61 62
55 55 55 55 55 56 56 56 56 56 56 56 56 57 57 57 56 56 56 57 58 58 58 56 55 54 54 53 52 51 52 53 54 56 57 57 58 59 60 61 63 64
55 55 54 54 54 54 54 54 55 55 56 56 57 57 58 57 57 57 58 59 60 60 60 60 59 58 58 57 56 56 57 58 58 59 60 61 61 61 62 62 63 65
58 56 55 54 55 55 54 54 54 55 55 56 57 58 58 58 59 59 60 61 62 62 63 63 63 64 64 64 64 65 66 66 65 66 67 67 67 66 66 66 66 66
62 60 59 58 58 58 57 57 57 57 58 59 60 60 61 62 62 63 63 64 65 66 67 67 67 68 69 70 71 72 73 73 73 73 73 73 72 71 71 70 70 69
66 64 63 62 62 63 63 63 64 65 66 67 68 68 68 69 69 70 70 71 72 73 73 73 73 73 74 75 76 77 77 78 78 78 77 76 74 73 73 72 72 71
69 68 67 67 68 69 69 71 72 73 74 75 76 76 76 76 77 77 77 78 79 79 79 78 78 79 79 80 80 80 80 81 80 79 77 76 75 74 73 72 72 72
72 72 72 73 74 75 76 77 78 78 79 80 81 81 81 81 81 81 82 82 82 81 81 81 81 81 82 82 82 82 81 80 79 77 75 74 73 72 72 71 71 71
77 77 78 78 79 80 81 82 82 83 84 84 85 85 85 85 85 85 84 83 82 81 81 80 79 79 80 80 80 79 77 75 73 72 70 69 68 67 67 67 67 68
81 81 82 82 83 84 85 86 86 87 87 87 87 87 87 86 86 84 82 80 78 76 75 74 73 73 73 73 72 71 70 69 67 65 63 62 63 63 63 63 64 65
84 84 84 85 85 86 87 87 87 87 87 87 86 86 85 83 82 80 78 76 74 73 71 70 70 69 69 68 68 67 66 64 61 60 60 61 63 64 65 66 66 66

ECMWFNIL_500_spd_078.txt.gz
Wind_Speed
48 48 48 49 49 50 50 50 50 50 51 51 51 52 52 53 54 54 55 55 55 55 55 56 56 55 55 56 56 57 57 58 58 59 60 61 61 62 62 62 63 64
50 50 50 51 51 52 52 52 52 52 52 52 53 54 55 55 55 55 55 55 55 55 55 55 55 55 55 56 56 57 58 58 59 59 60 62 63 64 64 65 65 63
51 52 52 52 53 53 53 53 53 53 53 54 55 55 56 56 56 56 56 55 55 55 55 55 55 55 55 56 57 58 58 59 59 60 61 63 65 67 68 67 64 60
53 53 54 54 55 55 55 55 55 55 55 56 56 56 57 57 57 56 56 55 55 55 55 55 55 55 56 56 57 58 58 59 59 60 62 64 67 68 68 66 61 56
55 56 56 57 57 57 58 57 57 57 57 57 57 57 57 57 58 57 57 56 55 55 55 55 55 56 56 57 58 59 59 60 61 62 63 64 66 66 64 62 59 57
57 57 58 58 58 59 59 58 58 58 58 58 58 58 59 59 59 58 58 57 56 56 56 56 57 57 59 60 61 61 62 62 62 62 62 61 61 61 60 61 60 58
58 58 58 59 59 59 59 59 59 59 59 60 60 59 60 60 60 60 60 59 58 58 58 59 60 61 62 63 63 63 63 62 60 58 57 57 58 58 60 61 61 58
58 59 59 59 59 59 60 60 60 60 61 61 61 60 61 62 62 62 62 61 61 61 61 62 63 64 64 65 64 62 60 58 56 56 55 56 57 59 60 61 60 57
60 60 60 60 60 60 61 61 61 61 61 62 62 62 62 62 62 62 62 63 63 64 64 65 65 65 64 63 62 60 58 56 55 56 56 57 58 59 60 60 59 57
63 63 64 64 63 63 63 62 62 62 62 62 62 62 62 62 62 63 63 64 65 65 66 65 65 64 63 61 60 58 57 56 56 56 56 56 57 58 59 59 58 56
64 65 65 65 65 65 65 65 64 63 63 63 62 62 62 63 63 64 64 65 65 65 65 64 63 62 61 60 59 58 57 56 56 55 55 55 55 57 58 59 58 56
65 65 65 65 65 65 65 65 64 64 64 64 63 63 63 64 64 64 64 64 64 63 62 61 61 60 60 59 58 58 57 56 55 55 54 54 54 55 57 58 58 57
65 64 64 64 63 64 64 64 64 64 64 64 64 64 63 63 63 63 63 63 62 61 60 60 59 59 59 58 58 57 57 56 55 55 55 55 56 56 57 58 58 59
63 63 62 62 62 62 63 63 63 63 62 62 62 62 62 62 62 62 62 62 60 59 59 59 58 58 58 58 58 58 58 57 57 57 57 57 58 59 60 61 61 61
61 61 61 61 61 62 62 61 61 60 59 59 60 60 61 62 62 62 62 61 60 59 59 58 58 57 58 59 59 59 59 59 59 59 60 61 62 62 63 64 65 66
61 61 61 61 60 60 59 58 58 57 58 59 60 61 61 62 62 62 61 61 60 60 59 58 58 58 59 60 61 62 63 63 64 64 65 66 67 67 68 69 70 70
62 61 60 59 58 57 56 56 56 57 58 59 60 60 61 61 61 61 61 61 60 60 60 60 60 60 62 64 66 68 68 69 70 71 72 73 73 74 74 75 76 76
62 60 59 59 58 57 57 57 58 59 60 60 61 61 61 61 61 61 61 61 62 62 62 63 64 66 69 71 72 74 75 76 76 77 77 78 78 79 79 80 81 81
62 61 61 60 60 60 60 61 61 62 62 63 63 64 64 64 64 64 64 65 66 67 68 69 71 73 75 77 78 79 80 80 80 81 81 81 81 81 82 82 82 81
62 62 62 62 63 63 64 64 65 65 66 66 66 66 66 67 68 68 69 71 72 73 73 74 75 78 79 80 81 82 82 83 83 83 82 82 82 81 80 80 79 78
63 63 64 64 65 66 67 68 69 69 70 70 70 71 72 72 74 75 75 76 77 78 78 78 79 81 82 83 83 84 84 84 84 83 82 81 80 79 77 76 75 74
66 66 66 67 68 69 70 72 73 74 75 76 76 76 77 78 79 80 80 81 82 83 83 83 83 84 85 85 85 85 84 84 83 82 81 79 77 75 74 72 71 71
70 70 71 72 73 74 74 75 77 78 79 80 81 81 82 83 84 84 85 86 86 87 87 87 86 86 86 86 85 85 84 83 82 81 79 77 75 73 72 70 69 69
75 76 76 77 78 79 79 80 81 82 83 84 84 85 85 86 87 88 88 89 89 89 89 89 88 87 86 86 85 84 83 82 81 80 78 76 74 73 72 71 70 69
80 81 81 82 83 83 84 85 85 86 87 87 87 88 88 89 89 90 90 89 89 89 89 89 88 87 86 86 85 84 83 82 81 80 79 77 76 74 73 72 71 69
85 86 86 87 87 87 87 88 88 88 89 89 90 90 90 90 90 90 89 89 88 88 88 88 87 87 86 86 86 85 85 84 84 83 82 80 79 78 76 74 71 68

ECMWFNIL_500_spd_084.txt.gz
Wind_Speed
45 45 46 46 46 47 47 48 48 49 50 50 51 52 53 54 55 56 56 57 57 58 59 59 59 59 60 60 60 61 61 61 61 61 61 62 62 62 62 62 63 63
45 46 46 47 47 48 48 49 50 51 52 53 53 54 55 56 57 57 58 58 58 59 59 59 59 60 60 61 61 62 62 62 62 62 62 62 62 62 62 62 63 64
46 46 47 48 48 49 50 51 51 52 53 54 54 55 56 56 57 57 58 58 59 59 59 60 60 61 62 63 63 64 63 63 63 63 63 63 62 62 62 63 63 64
47 47 48 49 49 50 51 51 52 53 53 54 55 55 56 57 57 58 59 59 60 60 61 62 62 63 64 64 65 65 64 64 63 63 63 63 62 62 62 63 63 63
47 48 48 49 49 50 51 52 53 54 55 55 56 56 57 58 58 59 60 60 61 62 63 63 64 64 65 65 65 65 64 64 64 64 64 63 62 62 62 62 62 62
48 48 49 50 51 52 53 53 55 55 56 57 57 58 58 59 59 60 61 61 62 63 64 64 64 64 65 65 65 64 64 64 64 64 64 63 63 63 62 62 61 61
49 50 51 52 53 53 54 55 56 56 57 58 59 59 60 60 61 62 62 63 63 64 64 64 64 65 65 64 64 64 64 64 64 64 64 63 63 63 62 61 61 61
51 52 53 54 54 55 55 56 57 58 59 60 61 62 63 63 64 64 65 65 65 65 65 65 65 64 64 64 64 64 64 64 64 65 64 64 63 62 61 60 61 61
53 54 55 56 56 57 57 58 59 60 61 63 64 65 65 66 66 67 67 67 67 66 65 65 64 64 63 64 64 64 64 65 65 65 64 63 61 60 60 60 61 62
57 57 58 59 59 60 60 61 62 63 64 65 66 67 67 68 68 68 68 68 67 66 65 64 64 63 64 64 65 65 65 65 64 63 62 61 60 60 61 62 63 63
59 59 60 61 62 63 63 64 64 65 65 66 66 67 67 67 67 67 66 66 66 65 65 65 65 66 66 66 66 66 65 64 63 62 62 61 61 62 62 63 64 64
61 61 62 63 64 64 64 65 65 65 65 65 65 65 65 65 65 65 65 66 66 66 67 67 67 67 67 67 66 65 65 64 63 63 62 62 63 63 64 64 65 65
63 63 64 64 64 64 64 64 64 63 63 63 63 63 63 63 64 65 65 65 66 66 66 66 66 66 65 65 65 64 64 64 63 64 64 64 64 64 65 66 66 67
64 64 64 64 63 63 63 62 62 62 62 62 62 62 62 62 63 63 63 63 63 63 63 63 64 64 64 64 64 64 64 64 64 64 65 65 65 65 66 68 69 70
63 63 63 62 62 62 61 61 61 61 60 60 60 60 61 61 61 61 61 61 61 62 62 63 64 64 65 65 65 66 66 66 66 66 66 67 67 68 69 71 73 74
63 62 62 61 61 60 60 59 59 59 59 59 59 59 60 60 60 61 61 62 63 63 64 65 65 66 66 66 67 67 67 67 67 68 69 70 71 72 73 75 76 77
62 62 62 61 61 60 59 59 59 60 60 61 61 62 62 63 63 64 64 65 65 65 65 65 66 66 67 68 69 70 71 71 71 72 73 74 75 76 76 77 78 79
62 62 61 61 61 61 61 62 63 64 64 64 65 65 65 65 65 65 65 65 65 65 66 66 68 69 70 71 72 73 75 75 75 75 76 76 77 78 78 79 80 80
62 61 61 61 62 63 64 65 66 66 66 66 66 65 65 65 65 65 65 66 67 68 69 70 72 73 74 75 75 76 77 78 78 79 79 80 80 81 82 82 83 84
61 61 62 63 65 66 67 68 68 68 67 67 66 66 67 67 68 68 69 71 72 73 74 74 76 77 78 79 79 80 81 81 82 82 82 82 83 84 84 85 85 86
62 63 66 67 69 69 70 70 69 69 69 69 69 70 70 71 72 73 74 75 76 77 78 78 79 81 82 82 83 83 83 84 84 84 84 84 85 85 86 86 86 87
66 68 70 71 72 71 71 71 72 72 72 73 73 73 74 75 76 76 77 79 80 81 81 81 82 84 85 85 86 86 86 86 87 87 87 87 86 87 87 87 87 87
71 73 74 74 74 74 74 74 75 75 76 77 77 77 78 78 79 80 81 82 83 84 84 84 84 85 86 87 88 88 89 88 89 89 88 88 88 88 88 88 88 88
76 77 77 77 77 77 78 78 79 79 80 81 81 81 82 83 83 84 84 85 85 86 87 87 87 87 88 89 89 91 91 91 91 91 91 91 90 90 90 89 89 88
80 80 80 80 81 81 81 82 83 84 85 85 86 86 86 87 88 88 88 88 89 89 90 90 90 90 91 92 92 93 94 95 95 95 95 95 94 93 93 92 91 90
83 83 83 84 84 85 85 86 87 88 89 90 90 91 91 92 92 93 93 93 93 94 94 95 95 95 95 96 96 96 97 98 99 99 99 99 99 98 96 95 94 93

ECMWFNIL_500_spd_087.txt.gz
Wind_Speed
43 44 45 46 47 47 48 48 48 48 48 49 49 49 50 50 51 51 52 52 53 54 55 56 56 57 58 59 59 60 61 61 62 63 64 65 65 65 65 65 65 65
44 45 46 46 47 47 47 48 48 48 49 49 50 50 50 51 51 52 52 53 55 56 57 57 58 59 60 60 61 62 63 63 64 65 66 66 66 66 66 65 65 65
45 45 46 47 47 47 48 48 48 49 49 50 50 50 51 51 52 53 54 55 57 58 59 59 60 61 62 62 63 64 64 65 66 66 66 66 66 66 65 65 65 64
46 47 47 47 47 48 48 48 48 48 49 49 50 51 52 53 54 55 57 58 59 60 60 61 62 63 64 65 65 66 66 66 66 66 66 66 65 65 65 64 64 64
47 47 46 46 47 47 47 48 48 49 50 51 52 53 54 56 57 58 59 60 61 61 62 63 64 65 65 66 66 67 67 67 66 66 66 65 65 65 64 65 65 65
45 45 45 46 46 47 48 49 50 51 52 53 54 56 57 58 60 61 61 62 62 63 64 65 66 66 67 67 67 67 67 66 66 66 66 65 65 65 65 66 67 67
45 45 46 47 48 49 50 51 52 53 54 56 57 58 59 60 61 62 62 63 64 65 66 66 67 67 68 67 67 67 66 66 66 65 66 66 66 66 67 67 67 67
47 48 49 50 51 52 53 54 55 56 57 58 59 60 60 61 62 63 64 65 65 65 66 67 67 67 67 67 66 66 65 65 66 66 66 66 67 67 67 67 67 66
50 51 52 52 53 54 55 56 57 58 58 59 60 61 62 63 64 64 65 65 65 66 66 66 66 66 66 66 65 65 65 65 66 66 66 66 66 66 66 66 66 66
52 52 53 54 55 56 57 58 59 60 61 62 63 63 64 64 65 65 65 65 65 65 65 65 65 65 64 64 64 64 64 65 65 65 65 66 66 66 66 66 67 67
54 55 55 56 57 58 59 60 61 62 63 63 63 64 64 64 65 65 65 65 65 65 64 64 64 63 63 63 63 63 63 64 64 65 65 65 66 66 67 67 68 68
56 57 58 58 59 60 61 62 62 63 63 63 64 64 64 64 64 64 64 64 63 63 63 62 62 62 62 63 63 64 64 64 65 65 66 66 67 68 68 68 68 68
59 59 60 61 62 62 63 63 63 64 64 64 64 64 63 63 63 62 62 62 61 61 61 62 62 63 63 64 64 65 65 66 66 67 67 68 68 68 69 69 69 69
61 62 63 63 64 64 64 64 64 64 64 63 63 62 62 61 61 61 60 60 60 61 62 63 64 65 65 66 66 67 67 67 67 67 67 67 68 68 69 70 70 71
62 63 64 64 65 64 64 64 64 63 62 62 61 61 61 60 60 59 59 60 61 62 64 65 66 67 67 68 68 68 68 68 68 68 69 69 70 70 71 72 73 74
64 64 64 64 64 64 63 63 62 62 61 61 61 61 60 59 59 60 61 62 64 65 66 67 67 68 68 69 69 70 70 71 71 72 72 73 74 74 75 76 77 78
64 64 63 63 63 62 62 61 61 61 61 61 61 60 60 60 61 62 64 66 67 68 68 68 69 69 70 71 72 73 74 74 75 75 76 77 78 78 79 80 80 81
64 63 63 62 62 61 61 61 61 61 61 61 61 61 61 62 64 66 68 69 70 70 70 70 71 72 73 75 76 77 78 78 78 79 79 80 81 82 83 83 84 84
63 63 62 62 62 62 61 61 61 61 61 61 62 63 64 65 68 70 71 72 73 73 72 73 74 75 76 78 79 80 81 82 82 83 84 84 85 86 86 86 87 87
63 63 63 63 63 62 62 61 61 62 63 64 65 66 68 69 71 73 74 75 76 76 76 76 77 79 80 82 83 84 86 87 87 88 88 88 88 89 89 89 90 90
64 64 65 64 64 63 62 62 64 65 67 68 69 70 72 73 75 76 77 78 79 79 80 80 81 83 85 86 87 89 90 91 91 91 92 91 91 92 92 93 93 93
66 66 65 64 64 63 64 66 68 70 72 72 73 74 76 77 79 79 80 81 82 83 84 85 85 87 88 89 90 92 93 93 94 94 94 94 94 95 95 96 96 96
66 66 65 65 65 67 69 71 73 74 75 76 77 78 79 81 82 82 83 84 85 87 88 88 88 89 91 92 92 94 95 96 96 97 97 96 96 97 97 97 97 97
67 66 66 67 69 71 73 75 76 78 79 80 81 82 83 84 85 86 86 87 88 89 91 91 92 92 93 94 95 96 98 99 100 100 100 100 100 100 101 100 100 99
68 69 70 72 74 76 77 79 80 82 83 84 85 86 86 87 88 89 89 90 91 92 93 95 95 95 96 97 99 100 101 103 104 104 104 104 104 104 104 104 103 103
72 73 75 77 78 80 82 83 84 85 86 86 87 88 89 89 91 92 92 93 94 95 96 97 98 99 99 100 101 102 103 105 106 107 107 107 106 106 105 105 104 104

ECMWFNIL_500_spd_093.txt.gz
Wind_Speed
39 39 40 40 41 41 42 42 43 44 44 45 45 45 46 46 47 48 49 50 50 51 51 51 51 50 51 52 53 54 55 56 57 58 60 61 62 63 65 66 67 68
40 41 41 42 43 44 44 44 45 45 45 45 46 46 47 48 49 50 50 51 51 51 51 51 51 52 52 53 54 56 57 58 59 60 62 63 64 65 66 68 69 70
41 42 42 43 44 45 45 45 46 46 46 47 47 48 49 50 50 51 51 51 50 51 51 52 53 54 55 56 57 58 59 60 61 62 64 65 66 67 68 69 70 70
42 43 43 44 45 45 46 46 46 47 47 48 48 49 49 50 50 50 50 50 51 52 53 54 55 56 57 58 59 60 61 62 63 64 66 67 68 69 69 70 70 69
43 44 44 45 46 46 46 47 47 47 47 48 48 48 49 49 50 50 51 51 52 54 55 55 56 57 59 60 60 61 62 64 65 66 67 68 69 70 70 69 69 68
43 44 45 45 46 46 46 46 46 46 47 47 48 48 49 50 51 51 52 53 54 55 56 57 58 59 60 61 62 63 64 66 67 68 69 70 70 70 70 69 68 67
44 45 45 45 45 45 45 45 45 46 46 47 48 49 50 51 52 53 54 55 56 57 58 59 60 61 62 63 65 66 67 68 69 69 70 70 70 70 69 68 67 66
46 46 46 46 45 45 45 46 46 47 48 49 50 51 52 53 54 55 56 57 58 59 61 62 63 64 65 66 67 68 69 69 70 70 70 70 69 69 68 67 66 66
47 47 47 47 47 47 47 47 48 49 50 51 52 53 54 55 56 57 58 60 61 62 63 64 65 66 67 68 68 69 70 70 70 70 70 69 68 67 67 66 66 65
48 48 48 48 48 48 49 49 50 51 52 53 54 55 57 58 59 60 61 62 63 64 65 66 67 68 69 70 70 70 71 71 71 70 69 68 67 67 67 67 67 66
48 48 48 49 49 50 50 51 52 53 54 55 57 58 59 60 61 62 63 64 65 66 67 68 69 70 71 71 71 71 71 71 71 70 69 68 68 69 69 69 69 69
49 49 50 50 51 51 52 53 54 55 56 57 59 60 61 62 63 64 65 66 67 69 70 71 71 71 72 71 71 71 71 70 70 69 69 69 70 70 70 71 71 72
51 52 52 53 53 54 55 56 57 58 59 60 61 62 64 65 66 67 68 69 70 71 71 72 72 72 72 72 72 71 71 70 69 69 69 70 70 71 71 72 73 75
54 54 55 56 57 58 58 59 60 61 62 63 64 65 66 67 68 69 70 71 71 72 72 72 72 72 72 72 72 71 70 70 69 69 69 69 70 71 72 74 76 78
56 57 58 59 60 61 62 62 63 63 64 65 66 67 68 69 70 70 71 71 72 72 72 73 73 73 73 72 72 71 70 70 69 69 70 70 71 72 74 77 79 81
59 60 61 62 62 63 63 64 64 65 66 67 67 68 70 70 71 71 72 72 72 72 72 73 73 73 72 72 71 71 70 70 70 71 72 73 74 75 77 80 83 85
61 62 63 63 64 64 65 65 66 66 67 68 69 70 71 72 72 72 72 72 72 72 73 73 73 73 72 71 71 71 71 72 73 74 75 77 78 80 82 84 86 88
63 63 64 65 65 66 66 67 67 68 69 70 71 71 72 72 72 72 72 72 73 73 74 73 73 72 72 72 72 73 74 75 76 77 78 80 83 85 87 88 89 90
64 65 66 67 67 68 68 68 69 69 70 71 71 72 72 71 72 72 73 73 74 74 74 73 73 72 73 73 74 75 77 78 79 81 83 85 87 88 90 91 92 93
66 67 68 68 69 70 70 70 70 70 71 71 71 72 72 72 72 73 74 74 74 73 73 73 73 74 74 76 77 78 80 81 83 85 86 88 89 90 92 92 93 94
68 68 69 69 70 70 70 70 70 71 71 72 72 72 72 73 73 74 74 74 73 72 72 73 75 76 77 79 81 82 83 85 87 88 88 89 90 91 93 93 94 94
69 69 69 70 70 70 70 70 70 71 71 71 72 72 73 73 73 74 74 73 73 73 73 75 78 79 81 82 84 85 86 88 89 90 90 91 91 92 93 94 94 95
69 69 69 69 69 69 70 70 70 70 71 71 72 72 73 73 73 73 73 73 74 75 76 77 80 83 84 85 87 88 89 90 91 92 92 92 92 93 93 94 95 97
68 68 68 68 68 69 69 69 69 70 71 71 72 73 73 73 73 73 74 74 75 77 79 80 83 85 86 87 89 90 92 93 93 93 93 94 94 94 95 96 96 97
68 68 68 68 68 68 68 69 70 71 72 72 73 73 73 73 73 74 75 76 78 80 82 84 85 87 88 89 90 92 93 93 94 94 95 95 95 96 96 97 97 98
67 67 67 67 68 68 69 70 71 72 72 72 72 73 73 74 74 75 77 79 81 83 85 86 87 88 90 90 91 92 92 93 94 95 96 96 97 97 98 98 98 99

ECMWFNIL_500_spd_096.txt.gz
Wind_Speed
34 35 36 37 38 38 39 40 41 42 43 43 44 45 45 46 47 48 49 50 51 52 53 53 54 54 54 54 54 54 55 56 57 58 59 60 61 62 64 65 66 67
35 36 37 38 39 39 40 41 42 43 44 45 46 46 47 48 49 50 50 51 52 53 54 54 54 54 54 54 55 55 56 57 59 60 61 62 63 64 66 67 68 69
36 37 38 38 39 40 41 42 43 44 45 46 47 47 48 49 50 51 51 52 53 53 54 54 54 54 54 55 56 57 58 59 60 61 62 63 65 66 68 69 70 72
37 38 38 39 40 41 42 43 44 45 46 47 47 48 49 50 50 51 51 52 52 52 53 53 53 54 55 56 57 58 59 61 62 63 64 66 67 68 70 71 73 74
38 38 39 40 41 42 43 44 45 46 46 47 48 48 49 50 50 50 51 51 52 52 53 54 54 55 56 57 59 60 61 63 64 66 67 68 69 70 71 73 74 75
39 40 41 42 43 44 45 45 46 46 47 47 48 48 49 50 50 51 51 52 52 53 54 55 56 57 58 59 61 62 63 65 66 68 69 70 71 72 74 75 75 76
41 42 43 44 45 45 46 46 47 47 48 48 49 49 50 51 51 52 53 53 54 55 56 57 58 59 60 62 63 64 66 67 68 70 71 72 73 74 75 75 75 75
44 44 45 45 46 47 47 48 48 49 49 50 50 51 51 52 53 54 54 55 56 57 58 59 60 62 63 64 66 67 68 69 70 71 72 73 75 75 75 75 75 75
46 46 46 47 47 48 49 49 50 50 51 51 51 52 53 54 55 55 56 57 58 59 60 62 63 64 65 67 68 69 70 71 72 73 74 75 75 75 75 75 75 75
47 47 47 48 49 50 50 51 51 51 52 52 53 54 54 55 56 57 58 59 60 62 63 64 65 66 67 68 69 70 72 73 74 74 75 75 75 75 75 75 75 75
47 48 49 50 50 51 52 52 52 52 53 54 54 55 56 57 58 59 60 61 63 64 65 66 67 68 69 70 71 72 73 74 74 75 75 75 75 75 75 76 75 75
49 50 51 52 52 53 53 53 53 54 55 56 57 57 58 59 60 62 63 64 65 66 67 68 69 70 71 72 73 74 74 74 75 75 75 75 75 76 76 76 75 74
51 52 52 53 53 53 54 54 55 56 57 58 59 60 61 62 63 64 65 66 67 68 69 70 71 72 72 73 74 74 74 74 75 75 75 76 76 76 75 74 73 73
53 53 53 54 54 55 55 56 57 59 60 61 62 63 63 64 65 66 67 68 69 69 71 72 73 73 74 74 74 74 74 75 75 75 76 75 75 74 73 73 72 73
54 54 54 55 56 56 57 59 60 61 62 63 64 64 65 66 67 68 69 70 70 71 72 73 74 74 74 74 74 75 75 75 75 75 75 74 73 72 72 72 74 75
55 55 56 57 58 59 60 61 62 63 64 64 65 66 67 68 69 70 71 71 72 73 74 74 75 75 75 75 75 76 75 75 75 75 74 73 72 72 73 74 76 78
56 57 58 59 60 62 62 63 63 64 65 66 67 68 69 70 71 72 73 73 74 74 75 75 75 75 76 76 76 76 76 75 74 74 73 73 73 73 75 76 78 81
58 59 60 61 62 63 63 63 64 65 66 68 69 70 71 72 73 73 74 74 74 75 75 75 75 76 76 76 76 76 75 74 74 73 73 73 74 76 78 80 82 84
60 61 62 62 63 63 64 65 66 67 69 70 71 72 73 73 74 74 74 74 75 75 76 76 76 76 76 76 76 75 74 74 73 73 74 75 77 79 81 84 86 87
62 62 63 63 63 64 66 67 68 70 71 72 72 73 73 73 73 73 74 74 75 75 76 76 76 76 76 76 75 74 73 73 73 74 76 78 80 83 85 87 89 90
63 63 64 65 66 67 68 69 70 71 72 72 73 73 73 73 73 73 74 75 75 76 76 76 76 76 76 75 74 73 73 74 75 76 78 81 83 85 87 89 90 90
64 65 66 67 68 69 70 71 71 72 72 72 72 72 72 72 73 74 74 75 75 75 76 76 76 75 74 73 73 74 75 76 77 79 81 83 85 87 88 89 90 90
67 68 68 69 70 70 71 71 71 71 71 71 71 71 72 72 73 74 74 75 75 75 75 75 74 73 73 73 75 76 77 78 80 82 84 85 86 87 88 89 90 91
68 69 69 70 70 70 71 70 70 70 70 70 71 71 72 73 73 74 74 74 74 73 73 73 73 73 74 76 77 78 80 81 83 84 85 85 86 86 87 89 90 92
69 69 69 69 69 69 69 69 69 70 70 70 71 71 72 73 73 74 73 73 72 72 72 72 74 75 77 78 80 81 83 84 85 85 85 85 86 86 87 89 91 92
68 68 68 68 68 68 69 69 69 69 70 71 71 72 72 72 72 72 71 71 71 72 73 75 76 78 79 81 82 83 84 85 85 85 85 85 86 88 89 90 91 92

ECMWFNIL_500_spd_102.txt.gz
Wind_Speed
35 35 35 35 36 36 36 37 37 38 38 39 40 41 41 42 42 42 43 43 44 45 46 47 48 49 50 51 52 54 55 56 57 58 59 59 60 60 61 61 62 63
36 36 36 37 37 38 38 39 39 39 40 41 41 42 43 43 44 44 45 45 46 47 48 49 50 51 52 53 54 55 56 57 58 59 59 60 60 61 61 62 64 65
37 37 37 38 38 39 40 40 41 41 42 42 43 44 44 45 45 46 46 47 48 49 50 51 53 54 54 55 56 56 57 58 58 59 60 60 61 61 62 64 66 68
37 38 38 39 39 40 41 41 42 43 43 44 45 46 46 47 47 48 49 49 50 51 52 54 55 56 56 56 56 57 58 58 59 60 60 61 61 63 64 66 67 69
39 39 40 40 41 42 43 43 44 44 45 46 47 47 48 49 49 50 51 51 52 53 55 56 56 56 56 57 57 58 58 59 60 60 61 61 63 65 66 68 69 70
41 41 42 42 43 44 45 45 46 47 47 48 49 49 50 51 52 53 53 53 54 56 57 57 57 57 57 57 57 58 59 60 61 61 62 63 65 67 68 69 70 71
43 44 44 45 45 46 47 47 48 49 49 50 51 51 52 53 54 54 54 55 56 57 58 57 57 57 57 57 58 60 61 61 61 62 63 65 67 69 70 70 72 73
46 46 46 47 47 48 49 49 50 51 51 52 52 53 54 55 55 55 56 57 58 58 57 57 56 57 57 58 60 61 61 61 62 64 66 68 69 70 71 72 73 75
47 48 48 49 49 50 50 51 51 52 52 53 54 54 55 56 56 56 57 57 58 57 57 56 56 57 58 60 61 61 61 62 64 66 68 70 71 71 73 74 75 76
49 49 50 50 50 51 51 52 52 53 53 54 55 55 56 56 56 57 57 57 57 57 56 57 57 59 60 61 61 62 63 65 67 69 70 71 72 73 74 75 76 76
49 50 50 51 51 51 52 52 53 53 54 54 55 56 56 57 57 57 57 57 57 57 57 58 59 60 60 61 62 64 65 67 69 70 71 72 73 74 75 76 76 76
50 50 50 51 51 51 52 52 53 54 54 55 56 56 57 57 57 57 57 57 57 57 58 59 60 61 61 63 64 66 67 69 70 71 72 74 74 75 76 76 76 76
49 50 50 50 51 52 52 53 54 54 55 56 56 56 57 57 57 57 57 58 58 59 59 60 61 62 63 65 66 68 69 70 71 73 74 75 75 76 76 76 75 75
50 50 51 51 52 53 53 54 55 55 56 56 56 56 56 57 57 58 58 58 59 60 60 61 63 64 65 67 68 69 70 72 73 74 75 75 76 75 75 75 75 75
50 51 52 52 53 53 54 55 55 55 56 56 56 56 57 57 57 58 58 59 60 61 62 63 65 66 67 68 70 71 72 73 74 74 75 75 75 75 75 75 75 76
51 52 52 53 53 54 54 54 55 55 55 56 56 57 57 57 58 58 59 60 61 62 64 66 67 68 69 70 71 72 73 74 74 75 75 74 74 74 75 75 76 77
52 52 52 53 53 54 54 54 55 55 56 56 57 57 57 58 58 59 60 61 63 65 66 68 69 70 71 72 73 73 74 74 75 74 73 73 73 74 75 76 76 77
52 52 53 53 53 54 54 55 55 55 56 56 57 57 58 58 59 60 62 64 65 67 68 69 70 71 72 73 73 74 74 74 73 73 73 73 74 74 75 76 76 76
53 53 53 53 54 54 54 55 55 55 56 56 57 58 59 60 61 63 64 66 67 68 69 70 71 72 73 74 74 74 74 72 71 72 73 74 74 75 76 76 75 74
53 53 53 53 54 54 54 55 55 56 56 57 58 60 61 62 64 65 66 68 69 70 71 71 72 73 74 74 74 73 71 70 71 72 74 75 75 76 75 75 74 73
52 52 53 53 54 54 55 55 56 57 58 59 61 62 63 64 66 67 68 69 70 71 71 73 73 74 74 73 72 70 70 70 72 73 75 75 75 75 75 74 74 74
51 51 52 53 54 55 55 56 57 59 60 61 63 64 65 66 67 68 69 70 71 72 73 73 74 73 72 71 69 70 70 71 72 74 75 75 75 74 74 74 75 76
51 52 53 54 55 56 57 58 60 61 62 63 65 66 66 67 68 69 70 71 72 72 73 72 72 71 70 69 70 70 71 72 73 73 73 74 74 74 74 75 76 78
53 54 55 56 57 58 59 60 62 63 64 65 66 67 68 68 69 70 71 71 72 72 71 70 70 69 69 70 70 71 72 72 72 72 73 73 74 74 75 76 78 80
56 57 58 58 59 60 61 62 63 64 65 66 67 68 68 69 70 71 71 70 70 70 69 69 69 70 70 70 70 71 71 71 71 72 73 73 73 74 76 78 80 81
57 58 59 60 61 62 63 63 64 65 66 67 68 69 70 70 70 70 69 68 68 69 69 70 70 70 70 70 70 71 71 71 72 72 73 73 74 75 77 79 81 82

ECMWFNIL_500_spd_105.txt.gz
Wind_Speed
36 35 35 35 35 35 35 36 37 37 38 39 40 40 40 41 42 42 43 43 44 44 45 47 48 49 50 51 52 53 54 54 55 55 56 57 57 57 57 58 58 60
37 36 36 36 36 36 37 37 38 38 39 40 41 42 42 42 43 44 44 45 45 46 47 48 49 51 52 53 54 55 55 56 56 56 57 57 58 57 58 58 59 61
39 38 38 37 37 38 38 39 39 40 41 42 42 43 43 44 45 45 46 46 47 48 49 50 51 52 53 55 55 56 56 56 57 57 58 58 58 58 58 59 60 61
40 40 39 39 40 40 40 41 41 41 42 43 43 44 45 45 46 47 47 48 48 50 51 52 53 54 55 56 57 57 57 57 57 58 58 58 58 58 59 59 61 62
42 42 42 42 42 42 42 43 43 43 44 44 45 46 46 47 47 48 48 49 50 52 53 54 55 56 57 57 57 57 57 58 58 58 58 58 58 58 59 60 62 63
44 44 44 44 44 44 45 45 45 45 46 46 47 47 48 48 48 49 50 51 52 53 54 55 56 57 58 58 58 58 58 58 58 58 58 58 58 59 60 61 63 65
46 46 46 46 46 46 46 47 47 47 48 48 48 49 49 49 50 51 52 53 54 55 56 57 58 58 58 58 58 58 58 58 58 58 58 58 58 59 61 63 64 66
47 47 47 48 48 48 48 48 49 49 49 50 50 50 50 50 51 52 53 55 55 56 57 58 58 59 59 59 58 58 58 58 58 58 58 58 59 61 63 64 66 68
48 48 49 49 49 49 49 50 50 50 50 50 51 51 51 52 53 54 55 56 57 58 58 58 59 59 59 58 58 58 58 58 58 58 58 60 61 63 64 66 68 70
49 50 50 50 50 50 50 51 51 51 51 51 51 51 52 53 55 56 57 57 58 58 58 59 59 59 58 58 58 58 58 58 58 59 60 62 63 64 66 68 70 71
50 50 51 51 51 51 51 51 51 51 51 51 52 53 54 55 56 57 57 58 58 58 58 58 58 57 57 57 57 58 58 59 60 61 62 64 65 66 68 69 71 72
51 51 51 51 51 51 51 51 51 51 51 52 53 54 55 56 57 57 57 57 57 57 57 57 56 56 56 57 58 59 60 61 62 63 64 65 67 68 70 71 72 73
50 50 51 51 51 51 51 50 51 52 52 53 54 55 55 56 56 56 56 56 56 56 56 55 55 56 57 58 59 61 62 63 63 64 66 67 69 70 71 72 72 73
50 50 50 50 50 50 50 51 51 52 53 53 54 54 55 55 55 55 55 55 55 55 55 55 56 57 58 60 61 62 63 64 65 66 68 69 70 71 72 73 73 74
49 50 50 50 50 50 51 51 52 53 53 53 54 54 54 54 54 54 54 54 55 55 56 56 57 59 60 61 61 62 64 65 67 68 69 70 71 72 73 74 73 73
49 49 50 50 50 51 51 52 52 53 53 53 53 52 53 53 53 53 54 54 55 56 57 58 59 59 60 61 62 64 65 67 68 69 71 71 72 73 74 74 73 71
50 50 50 50 51 51 52 52 52 52 52 51 51 52 52 52 53 54 55 55 56 57 57 58 59 59 61 62 64 66 67 69 70 71 71 72 73 74 74 73 71 70
50 51 51 51 51 51 52 52 51 51 51 51 52 52 53 53 54 54 55 56 56 57 57 58 59 61 62 64 66 67 69 70 70 71 72 73 73 73 72 72 71 71
51 51 51 51 51 51 51 51 51 52 52 53 53 53 53 54 54 54 55 55 56 57 58 59 61 63 64 66 67 68 69 70 71 72 73 73 72 71 71 71 72 72
51 51 51 51 51 51 52 52 53 54 54 54 53 53 53 53 54 54 55 56 57 58 60 62 63 65 66 67 68 69 70 71 72 72 72 71 70 69 70 71 72 72
51 51 51 52 52 53 54 54 55 54 54 53 53 53 53 54 54 55 56 58 59 61 62 64 65 66 67 68 69 70 71 71 72 71 70 69 68 69 71 72 72 73
52 52 53 54 54 55 55 55 54 53 53 53 53 53 54 55 56 57 59 60 61 63 64 64 65 66 67 69 70 70 71 71 70 69 68 68 69 70 71 72 72 73
54 55 55 56 56 55 55 54 53 53 53 53 54 54 55 56 58 59 60 62 63 63 64 65 66 67 68 69 70 71 70 69 68 68 68 68 69 70 71 72 73 74
57 57 57 56 56 55 54 53 53 53 54 54 55 56 57 58 59 60 61 62 63 64 65 66 67 68 69 70 70 69 68 68 68 68 68 68 69 70 71 72 74 75
57 56 56 55 54 54 53 54 54 54 55 56 57 58 58 59 60 61 62 63 65 65 66 67 68 69 69 69 69 68 68 68 68 68 68 68 68 70 72 74 75 76
55 54 54 54 54 54 54 54 55 55 56 57 58 59 60 61 62 62 64 65 66 66 67 68 68 68 68 68 68 68 68 68 68 68 68 68 69 71 73 74 75 76

ECMWFNIL_500_spd_108.txt.gz
Wind_Speed
38 38 38 38 38 38 38 37 37 37 37 38 39 39 40 41 41 41 42 43 44 45 46 47 47 48 48 49 50 51 51 52 53 54 55 56 57 58 58 57 57 56
40 40 40 40 40 40 40 39 39 39 39 40 40 41 42 43 43 44 44 45 46 47 48 48 48 49 50 51 51 52 53 54 55 56 57 58 58 58 58 57 56 55
42 43 42 42 43 42 42 41 41 41 41 41 42 43 43 44 45 46 46 47 48 48 49 50 50 51 51 52 53 53 54 55 56 57 58 59 59 58 57 56 55 55
44 44 45 45 45 45 44 43 43 43 43 43 43 44 45 46 47 48 48 49 49 50 51 51 51 52 53 53 54 55 56 57 58 59 59 59 58 57 57 56 55 54
46 46 47 47 47 47 46 45 45 45 45 45 46 46 47 47 49 50 50 51 51 51 52 52 53 53 54 55 55 56 57 58 59 59 59 58 57 57 56 55 55 54
47 47 48 48 48 48 48 47 47 47 47 47 48 48 49 49 50 51 52 52 52 53 53 53 54 54 55 56 56 57 58 59 59 59 58 57 57 57 56 55 55 55
48 48 49 49 49 50 49 49 48 48 49 50 50 50 50 51 51 52 53 53 53 54 54 54 55 55 56 56 57 58 59 59 59 58 57 57 57 56 56 55 56 57
49 50 50 50 50 51 50 50 50 50 51 52 52 52 52 52 52 53 54 54 54 54 55 55 56 56 57 57 58 58 58 58 58 57 57 57 56 56 56 57 58 59
51 51 51 51 51 51 51 51 52 52 52 53 53 53 53 53 53 54 54 54 55 55 55 56 56 57 57 58 58 57 57 57 57 57 57 57 57 57 58 59 60 61
52 52 52 52 52 52 53 53 53 53 53 53 53 54 54 54 54 54 55 55 55 56 56 56 57 57 57 57 57 57 57 57 57 57 57 57 57 58 59 61 62 63
53 53 53 53 53 53 53 53 53 53 53 53 54 54 54 54 55 55 55 55 56 56 56 57 57 57 56 56 56 56 56 56 57 57 57 58 59 60 61 62 63 64
54 54 54 53 53 53 53 53 53 53 53 54 54 54 55 55 55 55 56 56 56 56 56 56 56 56 55 55 55 55 56 56 57 57 58 59 61 62 63 63 64 65
54 54 54 54 54 53 53 53 54 54 54 54 55 55 55 55 55 55 56 56 56 56 56 56 55 55 54 54 55 55 56 56 57 58 60 61 62 63 63 64 65 67
54 54 54 54 54 54 54 54 54 55 55 54 54 54 55 55 55 55 55 55 56 56 55 55 54 54 54 55 55 56 56 58 59 60 61 62 62 63 64 65 67 68
53 53 53 54 54 54 54 54 54 54 54 54 54 55 55 55 55 56 56 56 56 55 54 54 54 54 55 55 56 57 58 59 60 61 61 62 63 64 65 67 68 68
53 53 53 54 54 54 54 54 54 54 55 55 55 56 56 56 56 56 56 56 55 54 54 54 55 55 56 57 58 59 60 60 61 61 61 62 64 65 67 67 67 68
54 54 53 53 53 53 54 54 55 55 56 56 57 57 57 57 57 56 56 55 55 55 55 55 56 57 58 59 59 60 60 60 60 61 62 64 65 66 67 67 67 68
55 55 54 54 54 54 55 55 56 56 57 57 58 58 57 57 56 55 55 55 55 56 56 57 58 59 59 59 59 59 59 60 61 62 64 65 66 67 67 67 68 69
55 55 54 54 55 55 56 56 57 58 58 57 57 57 56 56 55 55 56 56 57 58 58 59 59 59 59 58 58 58 59 61 62 64 65 66 66 67 67 68 69 69
55 55 56 56 57 57 58 58 58 58 57 56 56 56 56 56 56 57 57 58 59 59 60 60 59 58 58 57 58 59 61 62 64 65 65 66 67 67 68 68 68 67
57 58 58 59 59 59 59 58 58 57 56 56 57 57 57 57 58 58 59 59 60 60 60 59 58 57 57 58 59 61 62 63 64 65 66 66 67 68 68 68 67 66
58 58 59 59 59 59 58 57 57 57 57 57 57 58 58 58 59 59 60 60 60 59 58 57 57 57 58 60 61 62 63 64 65 65 66 67 68 68 67 66 66 66
58 58 58 58 57 57 56 56 56 57 57 57 57 58 58 59 60 60 60 59 58 57 57 57 57 59 60 61 62 62 63 64 65 66 67 68 68 67 66 66 66 67
57 56 56 56 56 56 56 56 57 57 57 58 58 59 60 60 59 58 57 57 56 56 57 57 58 60 60 61 62 63 64 66 67 68 67 67 66 66 66 67 67 67
56 56 56 56 56 57 57 58 58 58 59 59 60 59 58 58 57 56 56 56 56 57 58 58 59 60 61 62 63 64 66 67 67 67 67 66 66 66 67 67 67 67
58 58 58 58 58 59 59 59 59 60 59 59 58 57 56 55 55 55 56 56 57 57 58 59 60 61 62 63 64 66 66 67 67 67 66 66 67 67 67 67 66 66

ECMWFNIL_500_spd_111.txt.gz
Wind_Speed
47 46 45 44 44 43 42 42 43 43 42 42 42 42 41 41 41 42 43 44 45 45 45 46 47 47 48 49 50 50 51 52 52 53 54 54 55 56 57 57 58 59
48 48 47 46 46 44 43 44 44 45 44 44 44 44 43 43 43 43 45 46 47 47 47 48 49 49 50 51 52 52 53 54 54 55 55 56 56 57 58 59 59 59
49 49 49 49 48 46 45 46 46 46 45 45 46 46 45 45 45 46 47 47 48 49 50 51 51 51 52 53 53 54 55 55 56 56 56 57 58 58 59 59 60 60
50 50 51 51 50 49 48 48 47 47 46 47 48 48 47 47 48 49 49 49 50 51 52 53 53 53 54 55 55 56 56 57 57 57 57 58 59 59 60 60 60 59
51 51 52 52 52 51 51 51 50 49 48 49 50 50 49 50 50 51 51 52 52 53 54 55 55 55 56 56 57 57 58 58 58 58 58 59 59 60 60 60 59 58
52 53 53 54 54 54 53 53 52 51 51 51 52 51 51 52 53 54 54 54 55 55 56 57 57 58 58 58 58 58 58 58 58 59 59 60 60 60 59 59 58 57
54 54 55 55 55 55 55 54 53 52 52 53 53 52 53 54 55 56 57 56 56 56 57 59 59 59 59 59 59 59 59 59 59 59 60 60 60 59 58 58 57 56
55 56 56 57 56 56 56 55 54 54 54 54 54 54 55 56 57 58 58 58 58 57 58 60 60 60 60 60 60 59 59 60 60 60 60 59 59 58 57 56 56 56
57 57 57 57 58 57 57 57 56 56 56 56 56 56 57 58 59 59 59 59 59 58 59 60 61 60 61 60 60 60 60 60 60 59 59 58 57 56 56 56 56 56
58 58 58 58 58 58 58 58 58 57 58 58 58 58 58 59 59 59 59 59 59 59 60 61 61 60 61 60 60 60 60 59 59 58 57 56 55 55 56 56 56 56
59 59 59 59 59 59 59 59 58 58 59 59 59 59 59 59 59 60 60 59 60 60 60 61 61 61 61 60 60 60 59 58 57 56 55 55 55 56 56 56 56 57
60 60 60 60 60 60 60 60 59 59 59 59 60 60 60 59 59 60 60 60 60 60 60 60 61 61 60 60 59 58 57 56 55 55 55 55 56 56 56 57 58 59
60 61 60 60 60 60 60 60 59 59 59 59 60 60 60 60 59 60 60 60 61 61 61 61 61 60 59 57 56 56 55 55 55 55 56 56 57 57 57 58 59 60
61 61 61 60 60 60 59 59 59 59 59 59 59 59 60 60 60 60 61 61 61 61 60 60 59 57 56 56 55 55 56 56 56 57 57 57 57 58 58 59 60 60
61 61 60 60 60 59 59 59 59 59 59 59 59 59 60 60 60 60 61 61 60 59 59 58 57 56 56 56 57 57 57 58 58 58 58 58 58 59 59 60 60 59
61 61 61 60 60 60 59 59 59 59 59 59 59 59 59 59 60 60 59 59 59 58 57 56 56 57 57 58 58 58 59 59 58 58 58 58 59 60 60 59 59 59
61 61 61 61 61 61 60 60 59 59 59 59 59 59 59 59 59 58 57 57 56 56 56 56 56 57 58 59 59 59 59 58 58 58 58 59 59 59 59 58 58 59
61 61 61 61 62 62 62 61 61 60 60 59 59 59 58 58 58 57 56 56 55 55 56 56 57 58 59 59 59 59 58 58 58 59 59 59 59 58 58 58 59 59
62 61 61 61 62 62 62 62 62 62 61 60 59 59 58 58 57 57 57 57 57 57 58 58 59 59 59 59 58 58 58 59 59 59 59 58 58 57 58 58 59 59
61 61 61 61 62 62 62 62 62 62 62 61 60 59 58 58 58 58 58 58 59 59 60 60 60 59 58 58 58 59 59 60 60 59 58 57 57 57 58 58 59 59
60 60 60 60 61 61 61 61 62 61 61 61 60 60 59 59 59 59 60 60 60 60 60 59 58 58 58 58 59 60 60 60 58 57 56 56 56 57 58 59 59 60
58 59 59 59 59 59 59 59 60 60 60 60 60 60 60 60 60 60 60 60 59 59 58 58 58 59 60 61 61 60 59 57 55 55 55 56 57 57 58 59 60 61
57 57 57 58 57 57 57 57 57 58 58 59 59 59 59 59 59 59 59 58 58 58 58 59 60 61 62 61 59 57 55 54 54 54 55 56 57 58 59 60 61 63
58 57 57 56 56 56 56 56 56 56 57 58 58 59 59 59 59 59 59 59 59 60 61 61 62 61 59 57 54 53 53 53 54 54 55 56 58 59 60 62 63 64
59 59 58 58 57 57 57 57 57 57 58 58 59 59 59 60 60 60 60 61 61 61 61 60 58 56 54 53 52 52 52 53 54 55 56 58 59 61 62 63 64 65
58 58 58 58 57 57 57 58 58 59 59 59 60 60 60 60 60 61 61 60 60 59 57 55 53 52 51 51 51 52 53 54 55 57 58 60 61 62 63 64 66 66

ECMWFNIL_500_spd_114.txt.gz
Wind_Speed
40 41 41 41 42 43 44 45 46 46 46 46 46 45 44 44 45 44 44 45 46 47 48 49 49 50 50 51 51 51 51 52 53 54 55 56 56 56 57 57 58 58
42 42 42 41 42 43 44 45 47 47 47 48 48 47 46 47 48 47 45 46 48 49 50 51 51 52 52 53 53 54 54 54 56 56 57 57 58 58 58 59 59 59
44 44 43 42 42 43 44 46 47 47 48 49 49 49 48 49 50 50 47 47 49 50 51 52 53 53 54 55 55 56 56 57 58 58 58 59 59 59 59 59 59 59
47 46 46 45 45 45 45 46 47 47 48 49 50 50 50 51 53 52 50 49 50 52 53 54 54 55 56 57 57 58 58 59 60 60 60 60 60 60 60 60 60 60
50 50 49 49 48 48 48 48 48 49 49 50 51 51 52 53 54 54 53 51 52 53 54 54 55 55 57 58 59 60 60 61 62 62 61 61 61 61 60 60 60 60
51 52 52 52 51 51 51 50 50 51 51 52 52 53 53 55 56 55 55 54 54 54 55 55 55 56 57 59 60 61 62 62 63 62 62 62 62 61 61 60 60 60
52 53 54 54 54 53 52 52 53 53 54 54 54 54 55 56 56 56 56 56 56 56 56 57 57 57 58 59 61 62 62 63 63 63 63 62 62 61 61 60 60 59
53 54 55 56 56 55 54 54 55 55 55 56 56 56 56 57 57 58 58 58 58 58 58 59 59 59 59 60 61 62 63 64 64 63 63 62 62 61 60 60 59 58
53 55 56 57 57 57 57 56 57 57 57 57 57 57 57 58 59 59 59 60 60 60 60 60 60 60 60 61 62 63 64 64 63 62 62 62 61 60 59 59 58 56
51 54 56 57 58 58 58 58 58 58 58 58 58 58 59 59 60 60 60 61 61 61 61 62 62 62 61 61 62 63 64 63 62 62 62 61 60 59 58 57 56 54
50 52 54 56 58 59 60 60 60 59 59 59 58 59 59 60 61 61 61 61 61 62 62 63 63 63 62 62 62 63 63 62 61 61 61 60 59 58 56 55 53 53
49 51 53 56 58 60 61 62 62 61 61 60 59 59 60 60 61 61 61 61 62 62 63 63 63 63 62 61 61 62 62 62 61 61 60 59 58 55 53 53 53 55
50 51 54 56 59 61 62 63 64 64 63 62 61 61 61 61 61 61 61 61 61 62 62 62 62 63 63 61 61 62 62 61 61 60 59 56 54 53 52 54 56 58
53 53 55 57 59 61 63 64 64 65 64 64 63 63 62 62 62 62 62 62 62 61 61 62 62 63 63 62 62 62 61 60 59 57 55 53 53 53 55 57 59 59
55 56 56 58 60 62 63 64 64 65 64 64 64 63 63 62 62 62 62 62 62 62 61 61 62 62 62 61 61 61 60 58 57 55 54 54 55 57 58 59 59 58
56 57 57 59 60 62 63 64 64 64 64 64 63 63 63 63 62 62 62 62 62 62 62 61 61 61 61 60 60 59 58 57 56 56 56 57 58 59 60 59 58 57
56 57 58 59 60 62 63 64 64 64 64 63 63 63 63 63 62 62 62 62 62 62 62 62 62 62 61 61 60 59 58 58 57 58 58 59 60 60 59 58 57 57
55 56 57 58 59 60 61 62 63 63 63 63 63 63 62 62 62 61 61 61 61 61 61 61 61 61 61 60 59 59 58 58 59 59 60 60 59 58 57 56 57 58
54 55 56 57 57 58 58 59 60 61 61 62 62 62 61 60 60 59 59 59 59 60 60 59 59 58 58 58 58 58 59 59 60 60 59 58 57 56 57 58 58 57
52 53 54 56 56 56 57 57 58 58 59 60 59 59 59 58 58 58 58 58 58 58 58 57 57 57 57 58 58 59 59 60 59 58 57 57 57 57 58 57 55 52
51 52 53 55 56 57 57 58 58 59 59 60 59 59 58 57 57 57 57 57 57 57 57 57 56 57 57 58 58 59 59 58 58 57 57 58 58 58 56 53 50 49
50 51 53 55 56 57 58 59 60 60 61 61 60 60 59 58 58 58 57 57 57 56 56 56 56 56 57 58 58 58 58 58 58 59 59 58 56 53 50 48 47 47
49 51 52 54 56 57 59 60 61 62 62 62 62 61 59 58 57 57 56 56 56 56 56 56 57 58 58 59 59 59 59 59 59 58 56 53 50 48 46 46 46 47
49 50 51 53 54 56 58 59 60 61 62 62 62 61 60 58 58 57 57 57 57 57 58 58 59 59 59 59 59 58 58 57 55 52 49 47 46 45 45 45 46 48
50 50 51 52 53 55 56 58 59 60 61 61 60 60 59 59 58 58 57 57 57 57 57 57 57 57 57 57 56 55 53 51 49 47 45 44 44 44 45 46 47 49
51 51 51 52 52 54 55 56 58 59 60 60 60 60 59 59 58 57 56 56 56 56 56 56 55 55 54 53 51 49 47 45 44 43 43 43 44 45 46 48 50 52

ECMWFNIL_500_spd_117.txt.gz
Wind_Speed
38 39 40 40 40 40 40 40 40 41 41 41 41 41 41 42 44 45 46 47 48 49 49 49 49 49 51 52 53 53 54 54 55 56 57 57 57 58 58 58 58 59
39 40 41 42 42 42 42 42 42 42 42 43 43 43 43 44 45 46 47 48 49 50 51 51 50 51 52 53 54 55 55 55 56 57 58 58 59 60 60 60 60 60
38 40 41 42 43 44 44 44 44 44 43 44 44 45 45 46 46 48 49 50 51 51 52 52 51 52 53 54 55 56 56 56 57 58 58 59 60 61 61 61 61 62
36 38 40 42 43 45 46 46 46 46 46 46 46 47 47 47 48 49 50 51 52 53 53 53 53 53 54 55 56 56 57 57 58 58 59 60 60 61 62 62 62 62
35 36 38 41 43 45 46 47 48 49 49 50 49 49 49 49 50 51 52 53 54 54 54 54 54 54 55 56 57 57 57 58 58 59 60 61 61 62 62 63 62 62
34 35 37 38 40 42 44 46 48 50 51 52 52 53 53 52 53 53 54 55 55 56 55 55 54 55 56 57 57 57 58 58 59 60 60 61 62 62 62 62 62 62
33 35 36 38 39 41 42 44 46 48 50 52 53 54 55 55 55 56 56 56 57 57 57 56 56 56 56 57 57 58 58 59 59 60 61 61 62 62 62 62 62 61
34 35 36 38 39 41 42 44 45 47 49 51 52 54 55 56 56 56 57 58 58 59 58 58 58 57 57 58 58 59 59 59 60 61 61 61 62 62 62 61 61 60
35 36 37 38 39 40 41 43 44 46 48 50 52 53 55 55 56 57 57 58 59 59 59 59 59 59 59 59 59 60 60 60 60 61 61 61 61 61 61 60 59 58
36 37 38 39 40 41 42 43 44 46 47 49 50 52 54 55 56 57 58 59 59 60 60 60 60 60 60 60 61 61 62 61 61 61 61 61 61 61 59 59 58 58
37 38 39 41 42 44 45 46 47 48 48 49 50 52 54 55 57 58 59 60 61 61 61 61 61 61 61 61 61 62 62 62 61 61 60 60 61 60 59 59 58 58
38 39 41 42 44 46 47 48 50 51 51 52 53 54 55 56 57 59 60 61 61 62 62 61 61 61 61 61 61 61 62 62 62 61 59 59 60 59 58 58 57 57
39 40 41 43 45 47 49 50 52 53 54 55 55 56 57 58 59 59 60 61 61 61 62 62 62 62 61 61 61 61 61 62 61 61 59 59 58 58 58 58 58 57
40 41 42 44 45 47 49 50 51 53 53 54 55 56 57 58 59 60 60 61 61 61 61 61 61 61 61 61 60 61 61 61 60 60 60 60 59 59 59 58 56 55
42 43 43 44 46 47 48 49 50 51 52 53 54 54 55 56 57 58 59 60 60 61 61 61 61 61 60 60 60 60 60 60 60 60 60 60 59 58 57 55 54 53
43 43 44 45 46 47 48 49 49 50 50 51 52 53 53 54 55 55 56 57 58 59 60 60 61 61 61 60 60 59 59 58 58 58 58 57 56 56 55 54 54 54
43 44 45 45 46 47 47 47 48 48 48 49 49 51 52 52 53 53 53 54 55 55 56 57 58 58 59 58 58 58 57 56 56 56 55 55 54 54 54 54 55 55
43 44 45 46 46 46 46 47 47 48 48 49 49 50 51 52 52 53 53 53 54 54 55 56 57 57 57 57 56 56 55 55 55 55 55 55 55 55 55 55 55 55
43 43 44 44 45 46 46 47 48 48 49 50 50 51 52 52 53 54 54 55 54 54 55 55 56 57 57 56 55 54 54 54 54 55 55 55 55 55 56 56 56 55
41 41 41 42 42 43 44 45 47 48 48 50 51 52 53 54 54 55 55 55 55 54 54 55 55 56 56 55 54 54 54 54 55 55 56 56 56 57 57 57 57 56
38 38 39 39 40 42 43 45 46 47 48 49 50 51 53 54 55 56 56 55 55 54 54 54 54 54 54 54 54 54 55 56 56 57 58 58 58 58 57 57 57 57
38 38 39 41 42 44 45 47 48 49 49 50 51 52 53 54 55 56 56 55 55 54 54 54 53 53 53 54 55 55 56 57 57 57 57 56 56 56 56 56 55 54
40 41 43 45 46 47 47 48 49 49 50 51 52 53 54 55 56 56 56 56 56 55 56 55 54 53 53 54 54 54 55 55 55 55 55 54 53 54 54 53 51 48
43 44 45 46 46 46 46 46 47 48 49 51 52 53 54 54 54 55 55 55 55 55 55 54 52 51 51 52 52 52 51 52 52 53 53 52 52 51 49 47 45 43
43 43 43 42 42 42 43 44 45 46 47 49 50 50 51 50 50 49 49 49 49 50 50 49 48 47 47 47 47 47 48 49 50 50 49 48 47 45 43 41 40 40
41 40 40 39 40 40 41 42 43 44 45 46 47 47 47 46 46 45 45 45 44 44 45 45 45 45 44 44 44 44 44 44 44 43 42 41 41 40 39 39 40 41

ECMWFNIL_500_spd_123.txt.gz
Wind_Speed
32 31 31 31 31 32 32 33 33 34 34 34 34 34 34 35 36 37 38 39 40 40 41 42 43 44 45 46 47 48 48 49 50 50 51 52 53 53 54 54 55 55
33 34 34 34 34 34 35 35 35 35 34 34 34 35 35 36 37 38 39 40 40 41 42 43 44 45 46 47 48 48 49 50 50 51 52 53 53 54 54 54 55 55
34 35 35 35 35 36 36 36 35 35 34 34 34 35 36 36 37 38 39 40 41 42 43 44 45 46 47 47 48 49 50 50 51 52 52 53 54 54 54 55 55 55
34 35 35 35 35 36 35 34 33 32 32 32 33 33 34 35 36 38 39 40 41 42 43 44 45 46 47 48 49 50 50 51 51 52 53 54 54 55 55 55 55 55
33 33 33 34 33 33 32 30 30 30 29 30 31 32 34 35 36 38 39 40 41 42 44 45 46 47 48 49 49 50 51 51 52 53 54 54 54 54 55 54 54 54
31 31 31 30 30 29 27 27 28 28 29 30 32 33 34 36 37 38 40 41 42 43 44 46 47 48 49 49 50 51 51 51 52 53 53 53 53 54 53 53 53 53
29 29 29 28 28 27 26 27 28 29 30 32 33 35 36 37 38 40 41 42 43 44 45 46 47 48 49 50 51 51 52 52 52 53 53 53 53 53 52 52 52 52
29 29 29 28 28 28 28 29 30 31 33 34 35 37 38 39 40 42 42 43 44 45 46 47 48 49 50 51 52 53 53 53 53 53 53 52 52 52 51 51 51 51
31 30 30 30 29 30 30 31 33 34 35 36 37 38 40 41 42 43 44 45 46 47 48 49 50 51 52 53 53 53 53 53 53 52 51 50 50 50 50 50 50 50
33 32 32 31 32 32 33 34 35 36 37 38 39 40 42 43 44 45 46 47 48 49 50 51 51 52 53 53 53 53 53 52 51 49 49 49 49 49 49 50 49 50
35 34 34 34 35 36 36 37 38 38 39 40 41 42 44 45 46 47 48 49 49 50 51 51 52 52 52 52 52 51 51 49 48 48 47 48 48 49 49 50 49 50
37 36 36 37 38 39 40 40 40 41 41 42 44 45 46 47 47 48 49 49 50 51 51 51 51 51 50 50 49 49 48 47 46 46 47 47 48 49 49 49 49 49
39 39 40 40 41 42 42 42 42 43 44 45 46 46 47 47 48 48 48 48 49 49 49 49 49 48 47 47 46 46 45 45 45 46 47 48 49 49 49 49 49 49
41 41 42 43 43 44 44 44 44 45 45 46 47 46 46 46 46 46 46 47 48 48 48 48 47 46 45 45 45 45 45 46 47 48 48 49 50 50 50 49 49 48
43 43 44 44 45 45 45 45 45 46 47 47 46 44 44 44 44 45 46 47 47 47 47 46 45 44 44 44 44 45 46 48 49 49 50 50 49 48 47 46 45 45
45 45 45 46 46 46 46 46 46 47 46 44 43 42 42 42 44 46 47 47 47 46 45 43 42 42 43 44 45 46 48 49 49 48 47 46 44 43 42 41 41 42
47 47 47 48 48 47 47 47 47 45 43 41 40 41 42 44 45 46 46 45 45 43 42 42 42 42 43 44 45 46 46 45 44 43 41 40 39 39 39 39 40 40
49 49 49 48 48 47 47 46 45 42 39 40 41 42 44 45 45 45 44 44 42 42 41 41 41 42 42 43 43 43 42 40 39 38 37 37 38 38 39 39 40 40
50 49 49 49 48 47 46 44 41 39 39 40 41 42 43 43 43 43 42 41 40 39 39 39 40 40 40 40 40 39 38 37 36 36 36 36 37 38 40 40 40 40
50 50 49 48 47 45 44 41 39 39 39 40 40 40 41 41 40 39 38 37 37 37 37 37 37 38 38 37 37 36 36 35 35 35 36 37 38 39 40 41 41 41
51 50 49 47 45 44 42 40 39 39 38 37 37 38 39 39 37 36 35 35 34 34 34 34 34 35 35 35 35 34 34 35 35 35 36 37 39 40 41 41 42 42
51 50 48 46 44 42 41 40 39 37 35 35 35 37 38 37 35 34 34 33 31 30 30 31 32 33 34 34 33 34 34 35 36 36 37 38 40 41 42 42 43 44
51 48 46 45 43 42 41 40 37 34 33 33 34 35 36 36 35 34 32 29 28 28 28 30 32 33 33 33 33 34 35 37 38 38 39 40 41 42 43 44 44 45
49 47 45 44 43 43 41 39 36 33 32 32 33 34 35 35 34 31 28 27 28 29 30 32 33 34 34 34 35 36 37 38 39 40 40 42 42 43 43 44 45 45
48 46 45 45 44 43 42 38 34 32 31 31 32 33 34 33 31 29 28 29 30 31 32 34 35 34 35 36 36 37 38 40 40 41 42 43 43 43 44 45 44 45
47 46 45 45 46 44 42 38 34 32 32 32 32 32 32 31 30 30 32 33 33 34 36 37 37 36 37 38 38 39 41 42 42 42 43 44 44 45 46 45 45 45